CST,Max TemperatureF,Mean TemperatureF,Min TemperatureF,Max Dew PointF,MeanDew PointF,Min DewpointF,Max Humidity, Mean Humidity, Min Humidity, Max Sea Level PressureIn, Mean Sea Level PressureIn, Min Sea Level PressureIn, Max VisibilityMiles, Mean VisibilityMiles, Min VisibilityMiles, Max Wind SpeedMPH, Mean Wind SpeedMPH, Max Gust SpeedMPH,PrecipitationIn, CloudCover, Events, WindDirDegrees
2013-1-1,23,14,6,10,5,1,85,68,39,30.30,30.23,30.19,10,10,10,13,7,,0.00,1,,308
2013-1-2,33,22,10,27,16,5,93,74,56,30.20,30.12,30.04,10,10,10,17,10,20,0.00,3,Snow,216
2013-1-3,32,21,10,28,20,9,100,82,55,30.39,30.30,30.18,10,10,10,16,10,21,0.00,5,,275
2013-1-4,37,24,10,25,20,9,93,79,56,30.34,30.26,30.21,10,10,10,18,10,22,0.00,0,,212
2013-1-5,37,30,24,36,27,23,100,86,75,30.20,30.10,30.00,10,10,10,21,10,26,0.00,6,Rain-Snow,210
2013-1-6,35,25,15,23,16,10,93,68,44,30.31,30.25,30.07,10,10,10,22,14,28,0.00,2,,263
2013-1-7,44,34,23,28,23,18,80,66,46,30.25,30.13,30.04,10,10,10,23,11,29,0.00,0,,176
2013-1-8,46,39,32,32,30,27,87,71,53,30.11,30.01,29.92,10,10,1,18,10,25,0.00,0,,181
2013-1-9,51,42,32,32,27,21,93,63,35,30.44,30.34,30.12,10,10,10,14,9,,0.00,0,,267
2013-1-10,42,37,32,39,33,23,100,83,49,30.40,30.07,29.73,10,6,0,18,10,24,0.00,5,Fog-Rain,120
2013-1-11,55,47,39,50,45,39,100,88,67,29.74,29.64,29.55,10,7,0,25,11,32,0.00,4,Fog-Rain,170
2013-1-12,53,37,19,45,20,12,93,70,46,30.08,29.96,29.64,10,10,10,23,15,32,0.00,2,Snow,290
2013-1-13,23,16,10,12,8,3,85,71,58,30.33,30.18,30.02,10,10,10,17,12,22,0.00,1,Snow,288
2013-1-14,28,17,6,10,7,1,92,65,31,30.49,30.41,30.32,10,10,10,9,5,,0.00,0,,236
2013-1-15,32,22,12,14,9,1,86,64,27,30.41,30.29,30.12,10,10,10,9,4,,0.00,0,,191
2013-1-16,44,30,17,32,21,10,87,68,51,30.16,30.01,29.92,10,10,10,18,10,23,0.00,2,,228
2013-1-17,37,28,19,32,20,12,100,71,41,30.46,30.37,30.18,10,10,10,17,9,22,0.00,0,,326
2013-1-18,55,40,24,30,28,19,86,62,36,30.39,30.12,29.95,10,10,10,29,15,37,0.00,0,,185
2013-1-19,55,42,26,32,28,9,81,60,36,30.23,29.98,29.88,10,10,10,30,14,36,0.00,0,,252
2013-1-20,24,16,8,16,7,1,93,70,49,30.38,30.34,30.24,10,10,4,20,12,28,0.00,3,Snow,320
2013-1-21,10,6,3,7,-3,-9,85,62,48,30.42,30.36,30.33,10,10,10,23,14,29,0.00,1,,294
2013-1-22,15,10,5,1,-1,-4,78,61,45,30.44,30.37,30.31,10,10,10,7,4,,0.00,4,,287
2013-1-23,33,20,8,16,8,0,92,64,45,30.48,30.26,30.16,10,10,10,23,9,29,0.00,0,,266
2013-1-24,21,13,5,7,-1,-6,72,55,38,30.59,30.43,30.22,10,10,10,16,12,18,0.00,1,,84
2013-1-25,44,30,15,23,15,7,80,58,37,30.27,30.15,30.08,10,10,10,22,9,26,0.00,2,,263
2013-1-26,37,24,10,14,8,3,79,55,30,30.37,30.27,30.18,10,10,10,13,7,,0.00,1,,97
2013-1-27,50,37,28,50,32,14,100,90,55,30.17,29.94,29.78,10,5,0,16,11,22,0.00,7,Fog-Rain,133
2013-1-28,59,49,39,59,46,39,100,100,100,29.92,29.81,29.66,10,2,0,18,9,23,0.00,7,Fog,117
2013-1-29,62,47,32,63,45,32,100,100,100,29.66,29.58,29.49,10,7,1,22,14,32,0.00,7,Rain,323
2013-1-30,32,26,19,32,23,14,100,89,74,29.86,29.63,29.42,10,6,0,26,17,36,0.00,7,Rain-Snow,314
2013-1-31,21,11,1,16,2,-6,86,74,62,30.38,30.10,29.87,10,10,6,24,17,31,0.00,3,Snow,292